Retour au catalogue

BEIDOU 3M27

ActifNavigationMEO
NORAD 61187·PAYLOAD·🇨🇳 China

Lancé Sep 19, 2024 depuis Xichang Satellite Launch Center

Loading…

Prochains Passages (prochaines 24 heures)

TLE

FraisSource: Space-Track

Époque: Sep 14, 2026, 22:14 UTC

1 61187U 24168C   26257.92668076 -.00000060  00000-0  00000-0 0  9997
2 61187  54.3856 299.0985 0001003 325.2239  33.4623  1.86230386 10928

Suivez BEIDOU 3M27 en temps réel avec AllMySat

Download on the App Store